TimePDT,TemperatureF,Dew PointF,Humidity,Sea Level PressureIn,VisibilityMPH,Wind Direction,Wind SpeedMPH,Gust SpeedMPH,PrecipitationIn,Events,Conditions,WindDirDegrees,DateUTC
12:56 AM,48.9,13.1,24,29.99,10.0,Calm,Calm,-,N/A,,Clear,0,2013-03-25 07:56:00
1:56 AM,45.9,14.0,28,29.99,10.0,Calm,Calm,-,N/A,,Clear,0,2013-03-25 08:56:00
2:56 AM,45.9,10.0,23,29.99,10.0,Calm,Calm,-,N/A,,Clear,0,2013-03-25 09:56:00
3:56 AM,45.0,16.2,32,29.98,10.0,Calm,Calm,-,N/A,,Clear,0,2013-03-25 10:56:00
4:56 AM,45.0,13.1,28,30.00,10.0,Calm,Calm,-,N/A,,Clear,0,2013-03-25 11:56:00
5:56 AM,43.9,13.1,29,30.01,10.0,SSE,8.1,-,N/A,,Clear,160,2013-03-25 12:56:00
6:56 AM,43.0,14.0,31,30.04,10.0,SSE,9.2,-,N/A,,Clear,160,2013-03-25 13:56:00
7:56 AM,50.0,16.2,26,30.05,10.0,Calm,Calm,-,N/A,,Clear,0,2013-03-25 14:56:00
8:56 AM,57.9,13.1,17,30.05,10.0,Calm,Calm,-,N/A,,Clear,0,2013-03-25 15:56:00
9:56 AM,61.0,12.0,15,30.06,10.0,ENE,8.1,-,N/A,,Clear,60,2013-03-25 16:56:00
10:56 AM,63.0,13.1,14,30.06,10.0,NNE,6.9,-,N/A,,Clear,30,2013-03-25 17:56:00
11:56 AM,66.9,14.0,13,30.04,10.0,Variable,4.6,-,N/A,,Clear,0,2013-03-25 18:56:00
12:56 PM,70.0,13.1,11,30.01,10.0,Variable,4.6,-,N/A,,Clear,0,2013-03-25 19:56:00
1:56 PM,70.0,14.0,12,29.98,10.0,Variable,4.6,-,N/A,,Clear,0,2013-03-25 20:56:00
2:56 PM,72.0,14.0,11,29.94,10.0,Calm,Calm,-,N/A,,Clear,0,2013-03-25 21:56:00
3:56 PM,72.9,13.1,10,29.92,10.0,NNE,9.2,-,N/A,,Clear,20,2013-03-25 22:56:00
4:56 PM,72.9,14.0,11,29.89,10.0,ENE,8.1,-,N/A,,Clear,70,2013-03-25 23:56:00
5:56 PM,72.9,13.1,10,29.89,10.0,East,6.9,-,N/A,,Clear,80,2013-03-26 00:56:00
6:56 PM,70.0,13.1,11,29.89,10.0,Calm,Calm,-,N/A,,Clear,0,2013-03-26 01:56:00
7:56 PM,66.9,15.1,14,29.89,10.0,Calm,Calm,-,N/A,,Clear,0,2013-03-26 02:56:00
8:56 PM,63.9,17.1,16,29.90,10.0,SSW,6.9,-,N/A,,Clear,210,2013-03-26 03:56:00
9:56 PM,61.0,17.1,18,29.90,10.0,South,6.9,-,N/A,,Clear,190,2013-03-26 04:56:00
10:56 PM,59.0,15.1,18,29.90,10.0,Calm,Calm,-,N/A,,Clear,0,2013-03-26 05:56:00
11:56 PM,57.9,15.1,19,29.89,10.0,Calm,Calm,-,N/A,,Clear,0,2013-03-26 06:56:00